Regional Weather Roundup
Issued by NWS

Home | Current Version | Previous Version | Text Only | Print | Product List | Glossary On
Versions: 1 2 3 4 5 6 7 8 9 10 11 12 13 14 15 16 17 18 19 20 21 22 23 24 25 26 27 28 29 30 31 32 33 34 35 36 37 38 39 40 41 42 43 44 45 46 47 48 49 50
000
ASUS45 KREV 251110
RWRNV
NEVADA REGIONAL WEATHER ROUNDUP
NATIONAL WEATHER SERVICE RENO NV
400 AM PDT FRI MAY 25 2018

NOTE: "FAIR" INDICATES FEW OR NO CLOUDS BELOW 12,000 FEET WITH NO
SIGNIFICANT WEATHER AND/OR OBSTRUCTIONS TO VISIBILITY.

NVZ001-003-004-251200-
WESTERN NEVADA

CITY           SKY/WX    TMP DP  RH WIND       PRES   REMARKS
RENO           LGT RAIN  54  50  86 NW5       29.99F
CARSON CITY    LGT RAIN  52  46  82 E6        30.01F
MINDEN         CLOUDY    48  48 100 CALM      30.02F
SLIDE MTN        N/A     36  34  93 SW14        N/A
FALLON         MOCLDY    56  47  71 W8        29.95F
LOVELOCK       CLEAR     59  46  62 N8        29.95S
$$

NVZ002-CAZ072-073-251200-
NORTHERN AND CENTRAL SIERRA

CITY           SKY/WX    TMP DP  RH WIND       PRES   REMARKS
S. LAKE TAHOE  LGT RAIN  45  44  97 SW6       30.04S
TRUCKEE        TSTM      45  45 100 SE7       30.05F
SQUAW VLY 8000 NOT AVBL
BLUE CANYON    LGT RAIN  48  48 100 MISG      30.05F VSB 1/4
MAMMOTH LAKES  FAIR      40  37  86 CALM      30.07S
BRIDGEPORT     CLOUDY    41  35  79 CALM      30.02F
$$

NVZ030-031-036-251200-
NORTHERN NEVADA

CITY           SKY/WX    TMP DP  RH WIND       PRES   REMARKS
ELKO           CLEAR     50  42  74 CALM      29.99F
WINNEMUCCA     CLEAR     54  48  80 CALM      29.96F
WENDOVER       CLEAR     60  46  59 S8        29.97F
$$

NVZ035-037-251200-
CENTRAL NEVADA

CITY           SKY/WX    TMP DP  RH WIND       PRES   REMARKS
ELY            CLEAR     42  27  55 S12       30.09S
EUREKA           N/A     49  32  52 SE5       30.03F
$$

NVZ013-014-251200-
SOUTH CENTRAL NEVADA

CITY           SKY/WX    TMP DP  RH WIND       PRES   REMARKS
TONOPAH        CLEAR     53  32  44 CALM      30.01S
$$

NVZ017-020-022-251200-
SOUTHERN NEVADA

CITY           SKY/WX    TMP DP  RH WIND       PRES   REMARKS
LAS VEGAS      CLEAR     74  44  34 CALM      29.90S
N. LAS VEGAS   CLEAR     74  41  30 S7        29.90R
NELLIS AFB     CLEAR     73  39  29 S7        29.89R
HENDERSON      CLEAR     70  43  37 S7        29.94S
MERCURY        CLEAR     70  39  32 S18G26    29.94S
$$



USA.gov is the U.S. government's official web portal to all federal, state and local government web resources and services.